Regional Weather Roundup
Issued by NWS

Home | Current Version | Previous Version | Text Only | Print | Product List | Glossary Off
Versions: 1 2 3 4 5 6 7 8 9 10 11 12 13 14 15 16 17 18 19 20 21 22 23 24 25 26 27 28 29 30 31 32 33 34 35 36 37 38 39 40 41 42 43 44 45 46 47 48 49 50

000
ASUS43 KDMX 212101
RWRIA

WEATHER ROUNDUP FOR IOWA
NATIONAL WEATHER SERVICE DES MOINES IA
400 PM CDT SAT OCT 21 2017

NOTE: "FAIR" INDICATES FEW OR NO CLOUDS BELOW 12,000 FEET WITH NO
SIGNIFICANT WEATHER AND/OR OBSTRUCTIONS TO VISIBILITY.

* - THESE STATIONS ARE NOT NWS STATIONS...THUS NOT UNDER NWS
QUALITY CONTROL.  THEY ALSO DO NOT REPORT WEATHER SUCH
AS PRECIPITATION OR FOG.

IAZ001>003-012>014-020>022-031>034-043>046-212200-
   NORTHWEST IOWA

CITY           SKY/WX    TMP DP  RH WIND       PRES   REMARKS
CHEROKEE *     CLOUDY    58  50  76 NW10G20   29.73R
DENISON *      HVY RAIN  57  54  88 VRB6G15   29.73R
LE MARS *      CLOUDY    59  43  55 NW16G26   29.76R
ORANGE CITY *  CLOUDY    57  48  72 W15G22    29.74R
SHELDON *      CLOUDY    57  46  67 NW10G18   29.72R
SIOUX CITY     CLOUDY    57  44  62 NW21G32   29.74R
SPENCER        CLOUDY    58  51  78 W16G30    29.70R
STORM LAKE *   RAIN      55  52  88 W13G23    29.72R
$$

IAZ055>058-069>071-079>083-090>094-212200-
   SOUTHWEST IOWA

CITY           SKY/WX    TMP DP  RH WIND       PRES   REMARKS
ATLANTIC *     MOSUNNY   72  63  73 S16G26    29.67F
AUDUBON *      PTSUNNY   72  64  78 S13G23    29.70R
CLARINDA *     CLOUDY    73  64  73 S20G28    29.73F
COUNCIL BLFS * CLOUDY    63  57  82 NW18      29.72R
CRESTON *      CLOUDY    72  63  73 S24G33    29.75F
HARLAN  *      HVY RAIN  66  64  94 SW18G33   29.70R VSB 1/4
LAMONI         LGT RAIN  73  63  70 S15G26    29.79F
RED OAK *      CLOUDY    73  64  73 S21G32    29.68F
SHENANDOAH *   PTSUNNY   72  64  78 SW20G28   29.71R HAZE
$$

IAZ047>049-059>061-072>074-084-212200-
   CENTRAL IOWA

CITY           SKY/WX    TMP DP  RH WIND       PRES   REMARKS
AMES           CLOUDY    71  63  75 S20G29    29.75F
ANKENY *       CLOUDY    73  63  68 S14G21    29.76F
BOONE *        CLOUDY    72  61  68 S18G24    29.73F
CHARITON *     CLOUDY    73  63  68 S17G24    29.80F
DES MOINES     PTSUNNY   74  62  66 S22       29.75F
GRINNELL*      CLOUDY    72  61  68 S13       29.83F
KNOXVILLE *    CLOUDY    73  61  64 S13       29.79F
MARSHALLTOWN   CLOUDY    72  61  68 S20G26    29.78F
NEWTON *       CLOUDY    73  61  64 S22G28    29.79F
PELLA *        MOSUNNY   74  61  63 S15       29.82F
PERRY *        PTSUNNY   74  63  67 S18G31    29.72F
$$

IAZ004>006-015-016-023>025-035-036-212200-
   NORTH CENTRAL IOWA

CITY           SKY/WX    TMP DP  RH WIND       PRES   REMARKS
ALGONA *       PTSUNNY   70  63  78 S22G36    29.68R
CLARION *      PTSUNNY   70  64  83 S24G33    29.71F
ESTHERVILLE    CLOUDY    69  63  81 S17G30    29.64R
FORT DODGE *   CLOUDY    70  62  76 S21G32    29.70S
MASON CITY     CLOUDY    68  60  75 S22G29    29.74F
FOREST CITY *  PTSUNNY   68  61  77 S22G28    29.71F
WEBSTER CITY * PTSUNNY   73  61  64 S23G32    29.70F
IOWA FALLS *   CLOUDY    70  60  71 S17G29    29.78R
$$

IAZ007>011-017>019-026>030-037>042-050>054-066-212200-
   NORTHEAST IOWA

CITY           SKY/WX    TMP DP  RH WIND       PRES   REMARKS
CEDAR RAPIDS   CLOUDY    76  61  59 S9        29.83R
CHARLES CITY * CLOUDY    70  59  68 S18G26    29.78F
CLINTON *      PTSUNNY   79  61  53 S18       29.89S HX  80
DECORAH *      CLOUDY    70  59  68 S6        29.81S
DUBUQUE        CLOUDY    75  59  57 S15G25    29.87R
MONTICELLO *   CLOUDY    77  59  53 S15G22    29.85R
OELWEIN *      CLOUDY    72  61  68 SW18      29.84R
WATERLOO       CLOUDY    71  59  65 S17G24    29.80F
$$

IAZ064-065-067-068-078-212200-
   EAST CENTRAL IOWA

CITY           SKY/WX    TMP DP  RH WIND       PRES   REMARKS
DAVENPORT      MOSUNNY   78  60  53 S14G25    29.89S
IOWA CITY      CLOUDY    79  61  53 S15       29.86R HX  80
MUSCATINE *    CLOUDY    79  61  53 S17       29.86R HX  80
QUAD CITIES    MOSUNNY   79  59  50 S16       29.87S HX  80
$$

IAZ062-063-075>077-085>089-095>099-212200-
   SOUTHEAST IOWA

CITY           SKY/WX    TMP DP  RH WIND       PRES   REMARKS
BURLINGTON     PTSUNNY   79  62  56 S14G24    29.87R HX  80
FAIRFIELD *    CLOUDY    79  59  50 S15G24    29.84S HX  80
FORT MADISON * CLOUDY    81  61  50 S13G24    29.88R HX  81
KEOKUK *       CLOUDY    79  61  53 S15G24    29.87R HX  80
OSKALOOSA *    CLOUDY    75  60  60 SW10G21   29.84R
OTTUMWA        CLOUDY    77  61  57 SW12      29.83R
WASHINGTON *   PTSUNNY   79  61  53 S17G23    29.85S HX  80
$$

ABBREVIATIONS USED IN REMARKS
   TC - TEMPERATURES IN CELSIUS
  WCI - WIND CHILL INDEX
   HX - HEAT INDEX
  VSB - VISIBILITY
$$





USA.gov is the U.S. government's official web portal to all federal, state and local government web resources and services.